"Pseudo-MPEC" for C1C85J2

Created 2019 Nov 13 1:07:05 UT using Find_Orb

Click here for an explanation of pseudo-MPECs

 
 Astrometry: 
     C1C85J2  C2019 10 29.46460 06 07 02.64 -06 53 59.0    ~ATC7 20.7 GVNEOCPG96
     C1C85J2  C2019 10 29.47033 06 07 02.63 -06 53 56.4    ~ATC7 20.9 GVNEOCPG96
     C1C85J2  C2019 10 29.48172 06 07 02.60 -06 53 51.1    ~ATC7 21.2 GVNEOCPG96

Station data:
(G96) Mt. Lemmon Survey  (N32.442754 W110.788720)  US/Arizona.  Observers T.
   A. Pruyne, B. M. Africano, E. J. Christensen, G. A. Farneth, D. C. Fuls,
   A. R. Gibbs, A. D. Grauer, H. Gröller, J. A. Johnson, R. A. Kowalski, S.
   M. Larson, G. J. Leonard, D. Rankin, R. L. Seaman, F. C. Shelly. 1.5-m
   reflector + 10K CCD.

Orbital elements:  C1C85J2
   Perihelion 2019 Aug 20.635444 +/- 77.1 TT = 15:15:02 (JD 2458716.135444)
Epoch 2019 Oct 29.0 TT = JDT 2458785.5   Earth MOID: 0.8197   AutoNEOCP
M  15.55439793 +/- 57               (J2000 ecliptic)
n   0.22424129 +/- 0.366            Peri.  282.69351 +/- 120
a   2.68323669 +/- 2.92             Node    97.35340 +/- 29
e   0.3998206 +/- 0.254             Incl.   27.90560 +/- 22
P   4.40                   H 18.8   G  0.15   U 12.1  SR
q 1.61042333 +/- 0.671    Q 3.75605005 +/- 48.5
From 3 observations 2019 Oct. 29 (24.7 min); mean residual 0".02
Residuals in arcseconds: 
191029 G96  .02-  .02+    191029 G96  .03+  .03-    191029 G96  .01-  .01+    

Ephemerides (geocentric):
Date (UTC) HH   RA              Dec         delta   r     elong  mag " sig PA
---- -- -- --  -------------   -----------  ------ ------ -----  --- ---- ---
2019 11 13 01  06 02 17.861   -04 22 37.11  .93475 1.7596 132.2 21.0  65d   6
2019 11 13 02  06 02 16.209   -04 22 03.73  .93459 1.7598 132.3 21.0  66d   6
2019 11 13 03  06 02 14.552   -04 21 30.30  .93443 1.7599 132.3 21.0  66d   6
2019 11 13 04  06 02 12.890   -04 20 56.82  .93427 1.7600 132.3 21.0  66d   6
2019 11 13 05  06 02 11.224   -04 20 23.30  .93410 1.7602 132.4 21.0  66d   6
2019 11 13 06  06 02 09.553   -04 19 49.74  .93394 1.7603 132.4 21.0  66d   6
2019 11 13 07  06 02 07.878   -04 19 16.12  .93378 1.7605 132.5 21.0  66d   6
2019 11 13 08  06 02 06.198   -04 18 42.47  .93362 1.7606 132.5 21.0  66d   6
2019 11 13 09  06 02 04.513   -04 18 08.76  .93346 1.7607 132.6 21.0  66d   6
2019 11 13 10  06 02 02.824   -04 17 35.01  .93330 1.7609 132.6 21.0  66d   5
2019 11 13 11  06 02 01.130   -04 17 01.22  .93314 1.7610 132.6 21.0  66d   5
2019 11 13 12  06 01 59.432   -04 16 27.38  .93298 1.7611 132.7 21.0  66d   5
2019 11 13 13  06 01 57.729   -04 15 53.49  .93282 1.7613 132.7 21.0  66d   5
2019 11 13 14  06 01 56.021   -04 15 19.56  .93266 1.7614 132.8 21.0  66d   5
2019 11 13 15  06 01 54.309   -04 14 45.58  .93250 1.7615 132.8 21.0  66d   5
2019 11 13 16  06 01 52.592   -04 14 11.55  .93234 1.7617 132.9 21.0  67d   5
2019 11 13 17  06 01 50.870   -04 13 37.48  .93218 1.7618 132.9 21.0  67d   5
2019 11 13 18  06 01 49.144   -04 13 03.37  .93202 1.7620 132.9 21.0  67d   5
2019 11 13 19  06 01 47.413   -04 12 29.20  .93186 1.7621 133.0 21.0  67d   5
2019 11 13 20  06 01 45.678   -04 11 55.00  .93171 1.7622 133.0 21.0  67d   5
2019 11 13 21  06 01 43.938   -04 11 20.74  .93155 1.7624 133.1 21.0  67d   5
2019 11 13 22  06 01 42.194   -04 10 46.44  .93139 1.7625 133.1 21.0  67d   5
2019 11 13 23  06 01 40.444   -04 10 12.09  .93123 1.7626 133.2 21.0  67d   5
2019 11 14 00  06 01 38.691   -04 09 37.70  .93108 1.7628 133.2 21.0  67d   5
2019 11 14 01  06 01 36.932   -04 09 03.26  .93092 1.7629 133.2 21.0  67d   5
2019 11 14 02  06 01 35.170   -04 08 28.78  .93076 1.7630 133.3 21.0  67d   5
2019 11 14 03  06 01 33.402   -04 07 54.25  .93061 1.7632 133.3 21.0  67d   5
2019 11 14 04  06 01 31.630   -04 07 19.67  .93045 1.7633 133.4 21.0  67d   5
2019 11 14 05  06 01 29.853   -04 06 45.05  .93029 1.7635 133.4 21.0  67d   5
2019 11 14 06  06 01 28.072   -04 06 10.38  .93014 1.7636 133.5 21.0  67d   5
2019 11 14 07  06 01 26.286   -04 05 35.67  .92998 1.7637 133.5 21.0  67d   5
2019 11 14 08  06 01 24.496   -04 05 00.90  .92983 1.7639 133.5 21.0  67d   5
2019 11 14 09  06 01 22.701   -04 04 26.10  .92967 1.7640 133.6 21.0  67d   5
2019 11 14 10  06 01 20.902   -04 03 51.24  .92952 1.7641 133.6 21.0  67d   5
2019 11 14 11  06 01 19.098   -04 03 16.34  .92936 1.7643 133.7 21.0  67d   5
2019 11 14 12  06 01 17.289   -04 02 41.40  .92921 1.7644 133.7 21.0  67d   5
2019 11 14 13  06 01 15.476   -04 02 06.41  .92905 1.7646 133.8 21.0  67d   5
2019 11 14 14  06 01 13.658   -04 01 31.37  .92890 1.7647 133.8 21.0  67d   5
2019 11 14 15  06 01 11.836   -04 00 56.28  .92875 1.7648 133.9 21.0  67d   5
2019 11 14 16  06 01 10.009   -04 00 21.15  .92859 1.7650 133.9 21.0  67d   5
2019 11 14 17  06 01 08.177   -03 59 45.97  .92844 1.7651 133.9 21.0  67d   5
2019 11 14 18  06 01 06.341   -03 59 10.75  .92829 1.7652 134.0 21.0  67d   5
2019 11 14 19  06 01 04.501   -03 58 35.48  .92814 1.7654 134.0 21.0  67d   5
2019 11 14 20  06 01 02.656   -03 58 00.16  .92798 1.7655 134.1 21.0  67d   5
2019 11 14 21  06 01 00.806   -03 57 24.80  .92783 1.7657 134.1 21.0  67d   5
2019 11 14 22  06 00 58.952   -03 56 49.39  .92768 1.7658 134.2 21.0  67d   5
2019 11 14 23  06 00 57.094   -03 56 13.94  .92753 1.7659 134.2 21.0  67d   5
2019 11 15 00  06 00 55.230   -03 55 38.43  .92738 1.7661 134.2 21.0  67d   5